Location: アルンシュタイン
(50.0000°N, 10.0000°E)
Time: 18:25:36
(UTC+02:00)

Altair - Visible Passes

Search period start: 11 September 2024 00:00
Search period end: 21 September 2024 00:00
Orbit: 1501 x 1682 km, 47.2° (Epoch: 11 September)

Date Brightness Start Highest point End Pass type
(mag) Time Alt. Az. Time Alt. Az. Time Alt. Az.
11 Sep 8.9 03:26:08 20° SSE 03:29:31 23° SE 03:36:52 10° E visible
11 Sep 8.1 05:24:10 14° SW 05:32:43 55° SSE 05:42:29 10° E visible
12 Sep 8.9 03:02:26 20° SE 03:04:27 21° SE 03:11:24 10° E visible
12 Sep 8.1 05:00:27 20° SW 05:07:32 52° SSE 05:17:14 10° ENE visible
13 Sep 9.0 02:38:40 19° SE 02:39:23 19° SE 02:45:52 10° E visible
13 Sep 8.1 04:36:42 26° SSW 04:42:21 50° SSE 04:51:58 10° ENE visible
14 Sep 9.1 02:14:53 18° ESE 02:14:53 18° ESE 02:20:18 10° E visible
14 Sep 8.1 04:12:54 32° SSW 04:17:11 47° SSE 04:26:42 10° ENE visible
14 Sep 7.8 06:11:17 10° WSW 06:21:22 75° S 06:31:29 10° E visible
15 Sep 9.2 01:51:04 15° ESE 01:51:04 15° ESE 01:54:38 10° E visible
15 Sep 8.1 03:49:05 37° S 03:52:01 45° SE 04:01:26 10° ENE visible
15 Sep 7.8 05:47:06 14° WSW 05:56:08 74° SSE 06:06:15 10° E visible
16 Sep 9.4 01:27:14 12° ESE 01:27:14 12° ESE 01:28:50 10° E visible
16 Sep 8.1 03:25:15 40° SSE 03:26:52 42° SE 03:36:09 10° ENE visible
16 Sep 7.7 05:23:16 20° WSW 05:30:53 72° SSE 05:41:01 10° E visible
17 Sep 8.1 03:01:23 40° SSE 03:01:43 40° SE 03:10:52 10° ENE visible
17 Sep 7.7 04:59:24 27° WSW 05:05:39 71° SSE 05:15:46 10° E visible
18 Sep 8.3 02:37:30 37° SE 02:37:30 37° SE 02:45:33 10° ENE visible
18 Sep 7.7 04:35:31 35° SW 04:40:25 69° SSE 04:50:31 10° E visible
19 Sep 8.5 02:13:36 32° ESE 02:13:36 32° ESE 02:20:15 10° E visible
19 Sep 7.6 04:11:37 44° SW 04:15:12 67° SSE 04:25:16 10° E visible
19 Sep 7.8 06:09:43 10° W 06:19:50 76° S 06:29:58 10° ESE visible
20 Sep 8.7 01:49:42 27° ESE 01:49:42 27° ESE 01:54:55 10° E visible
20 Sep 7.6 03:47:42 53° SSW 03:49:59 65° SSE 04:00:01 10° E visible
20 Sep 7.7 05:45:43 15° W 05:54:35 77° S 06:04:44 10° E visible
